sat.trackr.live / text

‹ back to catalog

INTELSAT 31 (IS-31)

NORAD 41581 · 2016-035A

PAYLOAD ACTIVE UNKNOWN

§ Identity

Operator
Country
ITSO
Launch date
2016-06-09
Launch site
TYMSC
Launch vehicle
Mass (kg)
RCS (m²)
7.89

Purposes: comms

External: N2YO · Heavens-Above · Gunter

§ Orbital elements

Epoch: 2026-09-19T03:22:05.826144Z

Period
1,436.10 min
Inclination
0.0174°
Eccentricity
0.0001310
Mean motion
1.00271754 rev/d
Perigee alt
35,781.1 km
Apogee alt
35,792.1 km
Semi-major
42,164.7 km
B*
0.0000e+0
RAAN
222.2960°
Arg perigee
34.6095°
Mean anomaly
56.6393°
Rev number
3,762

§ Raw data

INTELSAT 31 (IS-31)1 41581U 16035A   26262.14034521 -.00000155  00000+0  00000+0 0  99922 41581   0.0174 222.2960 0001310  34.6095  56.6393  1.00271754 37625

JSON: /api/v1/satellites/41581 · /tle

For live sub-satellite position, see the globe view (requires WebGL).

§ Visibility from observer

Set your observer location to see the next 7 days of passes ≥ 10°. The values pass through the URL so the page stays shareable.

No JS? Fill the form by hand. The geolocation button needs JavaScript.